Вернуться в каталог

THOR DELTA 1 R/B

АктивенPO
NORAD 5106·ROCKET BODY·🇺🇸 United States

Запущен Apr 1, 1971 с Vandenberg Space Force Base

Loading…

Ближайшие Пролёты

TLE

Source: Space-Track
1 05106U 71024B   26229.56435343  .00000039  00000-0  14581-3 0  9994
2 05106  88.1658 303.3802 0042310 240.9232 186.3785 12.68914789564087

Отслеживайте THOR DELTA 1 R/B в реальном времени с AllMySat

Download on the App Store